Location: Cieszkowy
(50.3290°N, 20.5336°E)
Time: 13:50:54
(UTC+00:00)

Cosmos 1544 Rocket - Pass Details

Date: 15 June 2024
Orbit: 601 x 627 km, 82.5° (Epoch: 14 July)

Event Time Altitude Azimuth Distance (km) Brightness Sun altitude
Rises 00:02:24 0° 351° (N) 2,927 8.2 -14.0°
Reaches altitude 10° 00:04:40 10° 353° (N) 2,013 7.2 -13.9°
Maximum altitude 00:09:07 75° 78° (ENE) 653 3.7 -13.7°
Enters shadow 00:12:53 14° 164° (SSE) 1,728 5.4 -13.4°
